Weather History for KCCY - October, 2014

Change the Weather History Date:

Tuesday, October 28, 2014

  Actual Average Record
Temperature  
Mean Temperature 44 °F -  
Max Temperature 50 °F 56 °F 72 °F (1948)
Min Temperature 39 °F 35 °F 19 °F (1967)
Degree Days  
Heating Degree Days 20    
Moisture  
Dew Point 36 °F    
Average Humidity 72    
Maximum Humidity 93    
Minimum Humidity 58    
Precipitation  
Precipitation 0.00 in - - ()
Sea Level Pressure  
Sea Level Pressure 29.90 in    
Wind  
Wind Speed 14 mph (West)    
Max Wind Speed 24 mph    
Max Gust Speed 37 mph    
Visibility 10 miles    
Events      
Averages and records for this station are not official NWS values.
T = Trace of Precipitation, MM = Missing Value Source: NWS Daily Summary

Daily Weather History Graph

Daily Weather History Graph

Search for Another Location

Airport or City:

Trip Planner

Search our weather history database for the weather conditions in past years. The results will help you decide how hot, cold, wet, or windy it might be!

Date:

Astronomy

Oct. 28, 2014 Rise Set
Actual Time 7:40 AM CDT 6:07 PM CDT
Civil Twilight 7:10 AM CDT 6:37 PM CDT
Nautical Twilight 6:37 AM CDT 7:10 PM CDT
Astronomical Twilight 6:04 AM CDT 7:43 PM CDT
Moon 12:12 PM CDT (10/28) 10:11 PM CDT (10/28)
Length of Visible Light 11h 26m
Length of Day
10h 27m
Waxing Crescent, 24% of the Moon is Illuminated
Oct 28
Waxing Crescent
Oct 30
First Quarter
Nov 6
Full
Nov 14
Last Quarter
Nov 22
New

Hourly Weather History & Observations

Time (CDT) Temp. Windchill Dew Point Humidity Pressure Visibility Wind Dir Wind Speed Gust Speed Precip Events Conditions
12:15 AM 44.6 °F 39.2 °F 41.0 °F 87% 29.77 in 10.0 mi WNW 10.4 mph 16.1 mph N/A   Scattered Clouds
12:35 AM 44.6 °F 40.2 °F 41.0 °F 87% 29.78 in 10.0 mi West 8.1 mph - N/A   Partly Cloudy
12:55 AM 44.6 °F 40.2 °F 42.8 °F 93% 29.78 in 10.0 mi WNW 8.1 mph - N/A   Clear
1:15 AM 44.6 °F 39.7 °F 42.8 °F 93% 29.79 in 10.0 mi West 9.2 mph - N/A   Clear
1:35 AM 44.6 °F 40.7 °F 41.0 °F 87% 29.80 in 10.0 mi WSW 6.9 mph - N/A   Clear
1:55 AM 44.6 °F 39.2 °F 42.8 °F 93% 29.80 in 10.0 mi WSW 10.4 mph - N/A   Clear
2:15 AM 44.6 °F 40.2 °F 42.8 °F 93% 29.79 in 10.0 mi WSW 8.1 mph - N/A   Clear
2:35 AM 44.6 °F 39.2 °F 41.0 °F 87% 29.80 in 10.0 mi WSW 10.4 mph - N/A   Clear
2:55 AM 44.6 °F 38.4 °F 41.0 °F 87% 29.80 in 10.0 mi WSW 12.7 mph - N/A   Clear
3:15 AM 44.6 °F 38.8 °F 39.2 °F 81% 29.80 in 10.0 mi West 11.5 mph - N/A   Clear
3:35 AM 44.6 °F 37.4 °F 37.4 °F 76% 29.79 in 10.0 mi West 16.1 mph - N/A   Clear
3:55 AM 42.8 °F 36.6 °F 37.4 °F 81% 29.80 in 10.0 mi West 11.5 mph 18.4 mph N/A   Clear
4:15 AM 42.8 °F 35.4 °F 35.6 °F 76% 29.81 in 10.0 mi West 15.0 mph - N/A   Clear
4:35 AM 42.8 °F 35.4 °F 35.6 °F 76% 29.81 in 10.0 mi West 15.0 mph - N/A   Clear
4:55 AM 42.8 °F 35.8 °F 35.6 °F 76% 29.81 in 10.0 mi West 13.8 mph 24.2 mph N/A   Clear
5:15 AM 41.0 °F 34.3 °F 35.6 °F 81% 29.82 in 10.0 mi West 11.5 mph 18.4 mph N/A   Clear
5:35 AM 41.0 °F 33.9 °F 35.6 °F 81% 29.82 in 10.0 mi West 12.7 mph - N/A   Clear
5:55 AM 41.0 °F 33.9 °F 35.6 °F 81% 29.83 in 10.0 mi West 12.7 mph - N/A   Clear
6:15 AM 39.2 °F 31.6 °F 35.6 °F 87% 29.83 in 10.0 mi West 12.7 mph - N/A   Clear
6:35 AM 39.2 °F 31.2 °F 33.8 °F 81% 29.83 in 10.0 mi West 13.8 mph - N/A   Clear
6:55 AM 39.2 °F 31.6 °F 33.8 °F 81% 29.84 in 10.0 mi West 12.7 mph - N/A   Clear
7:15 AM 39.2 °F 32.5 °F 33.8 °F 81% 29.84 in 10.0 mi WSW 10.4 mph - N/A   Clear
7:35 AM 39.2 °F 31.6 °F 33.8 °F 81% 29.84 in 10.0 mi West 12.7 mph - N/A   Clear
7:50 AM 39.2 °F 32.0 °F 33.8 °F 81% 29.84 in 10.0 mi West 11.5 mph - N/A   Clear
8:15 AM 39.2 °F 31.2 °F 33.8 °F 81% 29.85 in 10.0 mi West 13.8 mph - N/A   Clear
8:35 AM 39.2 °F 30.8 °F 33.8 °F 81% 29.86 in 10.0 mi West 15.0 mph 21.9 mph N/A   Clear
8:55 AM 41.0 °F 33.5 °F 35.6 °F 81% 29.86 in 10.0 mi West 13.8 mph 20.7 mph N/A   Mostly Cloudy
9:15 AM 41.0 °F 32.2 °F 35.6 °F 81% 29.87 in 10.0 mi West 18.4 mph - N/A   Overcast
9:35 AM 42.8 °F 34.8 °F 35.6 °F 76% 29.87 in 10.0 mi West 17.3 mph 24.2 mph N/A   Mostly Cloudy
9:55 AM 44.6 °F 36.4 °F 35.6 °F 71% 29.87 in 10.0 mi West 20.7 mph 26.5 mph N/A   Partly Cloudy
10:15 AM 44.6 °F 36.6 °F 35.6 °F 71% 29.88 in 10.0 mi West 19.6 mph 31.1 mph N/A   Mostly Cloudy
10:35 AM 46.4 °F 39.2 °F 35.6 °F 66% 29.88 in 10.0 mi West 18.4 mph 28.8 mph N/A   Overcast
10:55 AM 46.4 °F 39.5 °F 35.6 °F 66% 29.88 in 10.0 mi West 17.3 mph 29.9 mph N/A   Overcast
11:15 AM 46.4 °F 38.1 °F 35.6 °F 66% 29.89 in 10.0 mi West 24.2 mph 33.4 mph N/A   Overcast
11:35 AM 46.4 °F 39.0 °F 35.6 °F 66% 29.90 in 10.0 mi West 19.6 mph 25.3 mph N/A   Overcast
11:55 AM 46.4 °F 39.2 °F 35.6 °F 66% 29.90 in 10.0 mi West 18.4 mph 27.6 mph N/A   Overcast
12:15 PM 48.2 °F - 35.6 °F 62% 29.91 in 10.0 mi WNW 18.4 mph 28.8 mph N/A   Overcast
12:35 PM 48.2 °F - 37.4 °F 66% 29.91 in 10.0 mi WNW 24.2 mph 33.4 mph N/A   Overcast
12:55 PM 48.2 °F - 35.6 °F 62% 29.91 in 10.0 mi WNW 17.3 mph 29.9 mph N/A   Overcast
1:15 PM 48.2 °F - 37.4 °F 66% 29.91 in 10.0 mi WNW 16.1 mph 27.6 mph N/A   Overcast
1:35 PM 48.2 °F - 35.6 °F 62% 29.91 in 10.0 mi West 23.0 mph 32.2 mph N/A   Overcast
2:00 PM 48.2 °F - 37.4 °F 66% 29.92 in 10.0 mi WNW 19.6 mph 29.9 mph N/A   Overcast
2:15 PM 48.2 °F - 37.4 °F 66% 29.92 in 10.0 mi West 17.3 mph 24.2 mph N/A   Overcast
2:35 PM 50.0 °F - 37.4 °F 62% 29.92 in 10.0 mi West 18.4 mph 26.5 mph N/A   Overcast
2:50 PM 50.0 °F - 37.4 °F 62% 29.92 in 10.0 mi WNW 18.4 mph 25.3 mph N/A   Overcast
3:10 PM 48.2 °F - 37.4 °F 66% 29.93 in 10.0 mi WNW 17.3 mph 26.5 mph N/A   Overcast
3:35 PM 48.2 °F - 37.4 °F 66% 29.93 in 10.0 mi WNW 16.1 mph 24.2 mph N/A   Overcast
3:55 PM 48.2 °F - 37.4 °F 66% 29.94 in 10.0 mi West 18.4 mph - N/A   Overcast
4:15 PM 48.2 °F - 37.4 °F 66% 29.95 in 10.0 mi WNW 18.4 mph 26.5 mph N/A   Overcast
4:35 PM 48.2 °F - 35.6 °F 62% 29.95 in 10.0 mi West 17.3 mph 25.3 mph N/A   Overcast
4:55 PM 50.0 °F - 37.4 °F 62% 29.95 in 10.0 mi West 16.1 mph - N/A   Overcast
5:15 PM 48.2 °F - 35.6 °F 62% 29.96 in 10.0 mi West 20.7 mph 27.6 mph N/A   Overcast
5:35 PM 48.2 °F - 35.6 °F 62% 29.96 in 10.0 mi WNW 16.1 mph 24.2 mph N/A   Overcast
5:55 PM 48.2 °F - 33.8 °F 58% 29.97 in 10.0 mi West 16.1 mph 24.2 mph N/A   Overcast
6:15 PM 46.4 °F 38.7 °F 33.8 °F 62% 29.98 in 10.0 mi WNW 20.7 mph 35.7 mph N/A   Overcast
6:35 PM 44.6 °F 36.6 °F 32.0 °F 61% 29.99 in 10.0 mi West 19.6 mph 28.8 mph N/A   Overcast
6:55 PM 44.6 °F 37.4 °F 32.0 °F 61% 30.00 in 10.0 mi WNW 16.1 mph 25.3 mph N/A   Overcast
7:15 PM 44.6 °F 37.8 °F 32.0 °F 61% 30.00 in 10.0 mi West 15.0 mph - N/A   Overcast
7:35 PM 44.6 °F 36.9 °F 32.0 °F 61% 30.01 in 10.0 mi WNW 18.4 mph 27.6 mph N/A   Overcast
7:55 PM 44.6 °F 36.9 °F 32.0 °F 61% 30.01 in 10.0 mi West 18.4 mph - N/A   Overcast
8:15 PM 44.6 °F 36.6 °F 32.0 °F 61% 30.01 in 10.0 mi WNW 19.6 mph 29.9 mph N/A   Overcast
8:35 PM 44.6 °F 36.4 °F 32.0 °F 61% 30.02 in 10.0 mi WNW 20.7 mph - N/A   Overcast
8:55 PM 44.6 °F 35.7 °F 32.0 °F 61% 30.02 in 10.0 mi WNW 24.2 mph 32.2 mph N/A   Overcast
9:15 PM 44.6 °F 37.2 °F 32.0 °F 61% 30.02 in 10.0 mi WNW 17.3 mph 24.2 mph N/A   Overcast
9:35 PM 42.8 °F 35.1 °F 32.0 °F 66% 30.02 in 10.0 mi WNW 16.1 mph 25.3 mph N/A   Overcast
9:55 PM 42.8 °F 37.0 °F 32.0 °F 66% 30.02 in 10.0 mi West 10.4 mph 18.4 mph N/A   Overcast
10:10 PM 42.8 °F 36.2 °F 32.0 °F 66% 30.03 in 10.0 mi West 12.7 mph - N/A   Overcast
10:35 PM 42.8 °F 36.6 °F 32.0 °F 66% 30.02 in 10.0 mi West 11.5 mph 20.7 mph N/A   Overcast
10:55 PM 42.8 °F 35.1 °F 32.0 °F 66% 30.02 in 10.0 mi WNW 16.1 mph - N/A   Overcast
11:15 PM 42.8 °F 34.3 °F 32.0 °F 66% 30.02 in 10.0 mi WNW 19.6 mph 33.4 mph N/A   Overcast
11:35 PM 42.8 °F 33.3 °F 32.0 °F 66% 30.03 in 10.0 mi WNW 24.2 mph 34.5 mph N/A   Overcast
11:55 PM 42.8 °F 33.8 °F 30.2 °F 61% 30.03 in 10.0 mi WNW 21.9 mph 36.8 mph N/A   Overcast